Pagina principală
METAR-TAF:

METAR-TAF

Aeroporturi :

La Grande/Union County Airport

La Grande, Oregon, Statele Unite ale Americii

Latitudine: 45-17N, longitudine: 118-00W, elevație: 827 m

Observații meteo curente

Raportul a fost făcut în urmă cu 11 de minute, la 14:56 UTC
Vânt 8 kt de la Nord/Nord-vest
Temperatură 21°C
Umiditate 21%
Presiune 1020 hPa
Vizibilitate: 16.1 km
Cer senin

METAR: KLGD 231456Z AUTO 34008KT 10SM CLR 21/M02 A3013 RMK AO2 SLP179 T02061017 51007 $

Ora: 08:07 (15:07 UTC)


TAF: lipsă

Observații și prognoze meteo pentru peste 4.000 de aeroporturi (rapoarte METAR și TAF).

Stațiile disponibile sunt reprezentate pe hartă prin puncte galbene și roșii.

Țineți indicatorul mouse-ului pe punctul dorit pentru a vedea denumirea stației.

Apoi, faceți clic pentru a vedea observațiile și prognozele meteorologice.

Pentru a schimba harta: Pentru mărire, faceți clic pe butoanele verzi cu cruce neagră; pentru micșorare, pe butonul verde cu o liniuță; pentru hărți învecinate, pe săgețile verzi.


METAR-TAF: